This demonstration page uses our WeatherBlox Daily Observations layout. Learn more.

Left ArrowRight Arrow

Hourly Observations for September 18, 2016

Temp ( °F °C ) Dew Point ( °F °C ) Humidity (%) Winds ( mph kmh ) Pressure ( in mb ) Visibility ( mi km ) Precip ( " mm )
12:51 am 00:51 Clear 65 18.3 45 7.2 49 49 Calm 29.9 1013 10 16.0934 0 0
1:51 am 01:51 Clear 62 16.7 48 8.9 60 60 SW 5 7 29.91 1013 10 16.0934 0 0.0254
2:51 am 02:51 Clear 59 15 47 8.3 64 64 Calm 29.92 1013 10 16.0934 0 0
3:51 am 03:51 Clear 59 15 45 7.2 60 60 N 6 9 29.93 1013 10 16.0934 0 0
4:51 am 04:51 Clear 57 13.9 47 8.3 69 69 Calm 29.93 1014 10 16.0934 0 0
5:51 am 05:51 Clear 57 13.9 46 7.8 67 67 Calm 29.96 1014 10 16.0934 0 0
6:51 am 06:51 Sunny 58 14.4 48 8.9 70 70 Calm 29.99 1016 10 16.0934 0 0
7:51 am 07:51 Sunny 68 20 43 6.1 40 40 Calm 30 1016 10 16.0934 0 0
8:51 am 08:51 Sunny 72 22.2 43 6.1 35 35 Calm 30.01 1016 10 16.0934 0 0
9:51 am 09:51 Sunny 78 25.6 40 4.4 26 26 Calm 30.01 1016 10 16.0934 0 0
10:51 am 10:51 Sunny 83 28.3 36 2.2 19 19 Calm 29.99 1016 10 16.0934 0 0
11:51 am 11:51 Sunny 86 30 37 2.8 18 18 VRB 3 6 29.97 1015 10 16.0934 0 0
12:51 pm 12:51 Sunny 89 31.7 39 3.9 17 17 VRB 3 6 29.93 1014 10 16.0934 0 0
1:51 pm 13:51 Sunny 91 32.8 37 2.8 15 15 VRB 3 6 29.91 1013 10 16.0934 0 0
2:51 pm 14:51 Sunny 92 33.3 33 0.6 12 12 Calm 29.89 1012 10 16.0934 0 0
3:51 pm 15:51 Sunny 94 34.4 31 -0.6 11 11 SSW 5 7 29.87 1012 10 16.0934 0 0
4:51 pm 16:51 Sunny 94 34.4 33 0.6 12 12 NNW 8 13 29.85 1011 10 16.0934 0 0
5:51 pm 17:51 Sunny 89 31.7 35 1.7 15 15 W 6 9 29.86 1011 10 16.0934 0 0
6:51 pm 18:51 Clear 83 28.3 40 4.4 22 22 WSW 5 7 29.88 1012 10 16.0934 0 0
7:51 pm 19:51 Clear 77 25 39 3.9 26 26 Calm 29.91 1013 10 16.0934 0 0
8:51 pm 20:51 Clear 73 22.8 42 5.6 33 33 NE 8 13 29.92 1013 10 16.0934 0 0
9:51 pm 21:51 Clear 72 22.2 43 6.1 35 35 E 8 13 29.93 1013 10 16.0934 0 0
10:51 pm 22:51 Clear 69 20.6 42 5.6 38 38 NNE 5 7 29.93 1013 10 16.0934 0 0
11:51 pm 23:51 Clear 67 19.4 45 7.2 45 45 Calm 29.93 1014 10 16.0934 0 0

Powered by AerisWeather